Location: Le Petit-Vavre
(46.5081°N, 1.5239°E)
Time: 18:42:13
(UTC+00:00)

Cosmos 1066 Rocket - Pass Details

Date: 03 March 2021
Orbit: 799 x 894 km, 81.2° (Epoch: 14 April)

Event Time Altitude Azimuth Distance (km) Brightness Sun altitude
Rises 19:35:30 0° 351° (N) 3,438 7.6 -20.1°
Reaches altitude 10° 19:37:58 10° 355° (N) 2,511 6.9 -20.5°
Maximum altitude 19:43:38 62° 76° (ENE) 986 4.2 -21.4°
Enters shadow 19:45:47 38° 140° (SE) 1,328 4.8 -21.8°
